Weather in Lisya Polyana

Russia / Orenburg Oblast     52°56′25″N   52°23′25″E
temp.,
°C
wind,
m/s
gust,
m/s
humid.,
%
clouds,
%
prec.,
mm/h
press.,
hPa
HPBL,
m
1 march, mon
mon123:00−13nnw379499 0.4 1011226
02:00−15nnw249579 0.0 1013127
05:00−18nw239585 0.1 101524
08:00−19nw239738 0.0 101724
11:00−16nw359418 0.0 1019231
14:00−13nw248774 0.0 1020403
17:00−14nw469087 0.0 1021457
20:00−19wnw339883 0.0 102224
2 march, tue
tue223:00−22w229941 0.0 102220
02:00−22wsw2310035 0.0 102121
05:00−21ssw3410059 0.0 101953
08:00−16ssw5997100 0.1 1016261
11:00−13ssw71295100 0.3 1014391
14:00−8sw71294100 0.9 1010635
17:00−5sw71395100 1.9 1007745
20:00−3sw71396100 1.3 1004687
3 march, wed
wed323:00−2sw61397100 3.5 1002691
02:00−2wsw51097100 1.6 1001511
05:00−2w3797100 1.8 1002378
08:00−6wnw239697 0.1 100242
11:00−6w249583 0.1 1003178
14:00−3wnw349352 0.0 1003417
17:00−3wnw359274 0.1 1004500
20:00−5wnw3695100 0.1 1004358
4 march, thu
thu423:00−6wnw489598 0.4 1006246
02:00−11wnw489675 0.0 1007148
05:00−13wnw369779 0.1 1008104
08:00−14w369994 0.0 1009103
11:00−10wsw489591 0.1 1010311
14:00−6sw5993100 0.1 1010451
17:00−6sw61193100 0.2 1009585
20:00−5sw71493100 0.3 1007886
5 march, fri
fri523:00−3sw81695100 0.9 1005886
02:00−1sw91691100 1.4 10031078
05:00−1sw101688100 1.6 10011048
08:00−2wsw91692100 0.5 1002994
11:00−1wsw81494100 1.6 10041034
14:000wnw5885100 0.9 1008707
17:00−2wnw3683100 0.9 1011449
20:00−7wnw2287100 0.0 101221